User: anonymous   Login
Location: Bannatyne
(13.0833°N, 59.5333°W)
Time: 06:38:25
(UTC+00:00)
Language:

CZ-4C R/B - Orbit

View from above orbital plane
View from above orbital plane
View from above satellite
View from above satellite

Ground track
Ground track

The orbit data is extracted from the following two-line orbital elements,

1 36416U 10009D   19339.82537563 -.00000062 +00000-0 +22486-4 0  9999
2 36416 063.4289 004.0310 0475494 355.2252 004.4330 13.69556087487697
Epoch (UTC): 05 December 2019 19:48:32
Eccentricity: 0.0475494
inclination: 63.4289°
perigee height: 650 km
apogee height: 1352 km
right ascension of ascending node: 4.0310°
argument of perigee: 355.2252°
revolutions per day: 13.69556087
mean anomaly at epoch: 4.4330°
orbit number at epoch: 48769

The dashed part of the orbit path shows where the satellite is in the earth's shadow,  

DLR